IK5WWP Weather Reports


Display with metric or nautical units.
time (UTC)temp
F
wind
direction
speed
MPH
gust
MPH
rain 1hr
in
rain 24hr
in
rain mn
in
humidity
%
barometer
mb
20260502123624 78 162 2.0 4.0 0.00 0.00 0.00 32 1021.2
20260502121823 78 19 1.0 4.0 0.00 0.00 0.00 31 1021.3
20260502120923 76 20 1.0 4.0 0.00 0.00 0.00 32 1021.6
20260502115123 77 140 1.0 4.0 0.00 0.00 0.00 31 1022.1
20260502114224 77 144 2.0 4.0 0.00 0.00 0.00 32 1022.0
20260502113324 77 149 0.0 4.0 0.00 0.00 0.00 31 1022.4
20260502112425 76 147 1.0 4.0 0.00 0.00 0.00 32 1022.5
20260502110626 76 63 1.0 2.0 0.00 0.00 0.00 32 1022.7
20260502105724 77 154 1.0 4.0 0.00 0.00 0.00 33 1022.9
20260502104825 77 171 2.0 6.0 0.00 0.00 0.00 32 1023.1
20260502103927 76 138 2.0 4.0 0.00 0.00 0.00 32 1023.2
20260502100325 75 145 1.0 4.0 0.00 0.00 0.00 33 1023.5
20260502090927 72 156 1.0 4.0 0.00 0.00 0.00 36 1023.9
20260502065424 56 158 0.0 2.0 0.00 0.00 0.00 60 1024.6
20260502064524 56 158 1.0 2.0 0.00 0.00 0.00 60 1024.7
20260502063626 55 150 1.0 2.0 0.00 0.00 0.00 60 1024.6
20260502062725 54 85 1.0 2.0 0.00 0.00 0.00 60 1024.7
20260502061824 54 31 0.0 2.0 0.00 0.00 0.00 63 1024.7
20260502060926 53 27 0.0 2.0 0.00 0.00 0.00 64 1024.5
20260502055124 51 23 1.0 2.0 0.00 0.00 0.00 67 1024.8
20260502054224 50 46 0.0 2.0 0.00 0.00 0.00 66 1024.8
20260502053327 49 45 0.0 2.0 0.00 0.00 0.00 69 1024.5
20260502052426 49 34 2.0 2.0 0.00 0.00 0.00 69 1024.5
20260502051524 49 11 0.0 2.0 0.00 0.00 0.00 68 1024.5
20260502045724 49 23 0.0 2.0 0.00 0.00 0.00 67 1024.5
20260502044824 48 19 0.0 2.0 0.00 0.00 0.00 68 1024.3
20260502043924 48 27 0.0 2.0 0.00 0.00 0.00 68 1024.5
20260502043032 48 23 0.0 2.0 0.00 0.00 0.00 67 1024.4
20260502041225 48 0 0.0 0.0 0.00 0.00 0.00 68 1024.3
20260502040325 48 1 0.0 2.0 0.00 0.00 0.00 68 1024.5
20260502035425 48 1 0.0 2.0 0.00 0.00 0.00 68 1024.5
20260502034525 48 1 0.0 2.0 0.00 0.00 0.00 68 1024.4
20260502033625 48 0 0.0 0.0 0.00 0.00 0.00 68 1024.6
20260502032725 49 0 0.0 0.0 0.00 0.00 0.00 67 1024.4
20260502031825 49 0 0.0 0.0 0.00 0.00 0.00 67 1024.4
20260502030925 49 0 0.0 0.0 0.00 0.00 0.00 67 1024.5
20260502025125 49 0 0.0 0.0 0.00 0.00 0.00 67 1024.3
20260502022426 49 0 0.0 0.0 0.00 0.00 0.00 66 1024.6
20260502021525 49 0 0.0 0.0 0.00 0.00 0.00 66 1024.6
20260502015725 49 22 0.0 2.0 0.00 0.00 0.00 65 1024.4
20260502013925 50 0 0.0 0.0 0.00 0.00 0.00 63 1024.3
20260502013025 49 0 0.0 0.0 0.00 0.00 0.00 65 1024.7
20260502012125 49 31 0.0 2.0 0.00 0.00 0.00 65 1024.5
20260502011225 50 23 0.0 2.0 0.00 0.00 0.00 63 1024.5
20260502010325 50 36 0.0 2.0 0.00 0.00 0.00 63 1024.6
20260502005425 51 19 0.0 2.0 0.00 0.00 0.00 62 1024.5
20260502004527 51 14 0.0 2.0 0.00 0.00 0.00 59 1024.5
20260502003625 51 23 0.0 2.0 0.00 0.00 0.00 61 1024.6
20260502000925 53 0 0.0 0.0 0.00 0.00 0.00 55 1024.6
20260502000025 53 0 0.0 0.0 0.00 0.00 0.00 55 1024.8
20260501235125 53 0 0.0 0.0 0.00 0.00 0.00 55 1024.9
20260501234225 53 0 0.0 0.0 0.00 0.00 0.00 55 1024.6
20260501233325 53 0 0.0 0.0 0.00 0.00 0.00 52 1024.6
20260501232427 53 0 0.0 0.0 0.00 0.00 0.00 54 1024.6
20260501231532 53 0 0.0 0.0 0.00 0.00 0.00 54 1024.5
20260501225725 53 1 0.0 2.0 0.00 0.00 0.00 54 1024.6
20260501224825 54 359 0.0 4.0 0.00 0.00 0.00 52 1024.2
20260501223925 54 1 2.0 4.0 0.00 0.00 0.00 48 1024.5
20260501223025 55 1 1.0 2.0 0.00 0.00 0.00 47 1024.5
20260501222125 56 351 1.0 4.0 0.00 0.00 0.00 46 1024.2
20260501221225 54 1 0.0 2.0 0.00 0.00 0.00 49 1024.3
20260501215402 53 1 0.0 2.0 0.00 0.00 0.00 54 1024.4
20260501214502 54 4 0.0 2.0 0.00 0.00 0.00 52 1024.0
20260501213601 55 1 0.0 4.0 0.00 0.00 0.00 48 1024.1
20260501212701 55 1 2.0 4.0 0.00 0.00 0.00 49 1024.2
20260501211802 55 1 0.0 2.0 0.00 0.00 0.00 48 1024.3
20260501210901 54 0 0.0 0.0 0.00 0.00 0.00 50 1024.3
20260501210004 54 0 0.0 0.0 0.00 0.00 0.00 52 1024.4
20260501205101 54 0 0.0 0.0 0.00 0.00 0.00 51 1024.1
20260501203302 54 1 0.0 2.0 0.00 0.00 0.00 51 1024.0
20260501202401 55 1 0.0 2.0 0.00 0.00 0.00 49 1024.0
20260501201508 56 1 0.0 2.0 0.00 0.00 0.00 49 1024.0
20260501200601 57 1 0.0 2.0 0.00 0.00 0.00 49 1023.7
20260501195701 57 1 0.0 2.0 0.00 0.00 0.00 50 1023.8
20260501193902 57 1 0.0 2.0 0.00 0.00 0.00 49 1023.6
20260501193003 57 1 0.0 2.0 0.00 0.00 0.00 49 1023.6
20260501192103 58 1 1.0 2.0 0.00 0.00 0.00 48 1023.3
20260501191203 59 1 1.0 2.0 0.00 0.00 0.00 47 1023.2
20260501190306 60 2 0.0 2.0 0.00 0.00 0.00 46 1023.3
20260501184503 64 320 1.0 7.0 0.00 0.00 0.00 33 1023.1
20260501183602 64 202 0.0 2.0 0.00 0.00 0.00 33 1022.7
20260501182703 64 341 0.0 2.0 0.00 0.00 0.00 35 1022.7
20260501180901 65 177 1.0 7.0 0.00 0.00 0.00 32 1022.4
20260501175101 66 206 0.0 4.0 0.00 0.00 0.00 33 1022.3
20260501174201 67 209 2.0 4.0 0.00 0.00 0.00 31 1022.2
20260501173301 67 199 1.0 6.0 0.00 0.00 0.00 32 1022.1
20260501172404 68 33 0.0 2.0 0.00 0.00 0.00 31 1022.3
20260501171503 69 216 0.0 4.0 0.00 0.00 0.00 30 1022.1
20260501170602 69 190 0.0 4.0 0.00 0.00 0.00 29 1021.9
20260501165701 70 89 2.0 4.0 0.00 0.00 0.00 29 1022.0
20260501164801 70 31 2.0 4.0 0.00 0.00 0.00 28 1021.8
20260501163902 71 10 1.0 4.0 0.00 0.00 0.00 28 1021.7
20260501162101 71 12 1.0 4.0 0.00 0.00 0.00 28 1021.8
20260501160301 72 8 1.0 7.0 0.00 0.00 0.00 28 1021.9
20260501155401 71 358 3.0 7.0 0.00 0.00 0.00 27 1021.7
20260501154503 72 10 2.0 6.0 0.00 0.00 0.00 28 1021.8
20260501153617 72 7 2.0 4.0 0.00 0.00 0.00 28 1021.8
20260501152701 73 24 2.0 4.0 0.00 0.00 0.00 29 1021.9
20260501151803 73 18 2.0 6.0 0.00 0.00 0.00 29 1021.6
20260501150901 73 26 2.0 7.0 0.00 0.00 0.00 29 1021.7
20260501144202 73 13 2.0 7.0 0.00 0.00 0.00 28 1021.7
20260501143302 73 19 2.0 7.0 0.00 0.00 0.00 28 1021.9
20260501142417 73 16 3.0 8.0 0.00 0.00 0.00 28 1021.8
20260501141505 73 15 2.0 6.0 0.00 0.00 0.00 28 1021.8